Location: Unspecified
(50.7693°N, 0.0000°E)
Time: 07:09:08
(UTC+00:00)

Transit 2A - Pass Details

Date: 16 August 2020
Orbit: 591 x 967 km, 66.7° (Epoch: 20 September)

Event Time Altitude Azimuth Distance (km) Brightness Sun altitude
Rises 00:52:29 0° 317° (NW) 3,654 10.0 -24.7°
Reaches altitude 10° 00:55:32 10° 329° (NNW) 2,717 9.4 -24.6°
Maximum altitude 01:00:51 27° 25° (NNE) 1,778 8.5 -24.4°
Drops below altitude 10° 01:06:03 10° 81° (E) 2,654 9.1 -24.2°
Sets 01:08:59 0° 94° (E) 3,554 9.6 -24.1°
